Location: B?ogocice
(50.2413°N, 20.2361°E)
Time: 14:54:27
(UTC+00:00)

SAR-Lupe-4 - Pass Details

Date: 21 September 2024
Orbit: 476 x 483 km, 98.1° (Epoch: 03 October)

Event Time Altitude Azimuth Distance (km) Brightness Sun altitude
Rises 03:07:30 0° 6° (N) 2,555 7.5 -12.9°
Reaches altitude 10° 03:09:43 10° 356° (N) 1,669 6.4 -12.6°
Maximum altitude 03:12:54 31° 293° (WNW) 874 4.4 -12.1°
Enters shadow 03:14:51 18° 243° (WSW) 1,232 5.0 -11.8°
